Weather History for Chesapeake, VA

Change the Weather History Date:

Sunday, March 17, 2013

  Actual Average (KORF) Record (KORF)
Temperature  
Mean Temperature 46 °F 50 °F  
Max Temperature 53 °F 58 °F 89 °F (1945)
Min Temperature 39 °F 41 °F 24 °F (1916)
Degree Days  
Heating Degree Days 19 16  
Month to date heating degree days 304  
Since 1 July heating degree days 2873  
Cooling Degree Days 0 0  
Month to date cooling degree days 0  
Year to date cooling degree days 1  
Moisture  
Dew Point 40 °F    
Average Humidity 87    
Maximum Humidity 100    
Minimum Humidity 76    
Precipitation  
Precipitation 0.00 in 0.12 in 2.94 in (1968)
Month to date precipitation 2.03  
Year to date precipitation 8.55  
Snow  
Snow 0.00 in 0.00 in 2.00 in (1926)
Month to date snowfall 0.2  
Since 1 July snowfall 5.8  
Snow Depth -    
Sea Level Pressure  
Sea Level Pressure 30.09 in    
Wind  
Wind Speed 8 mph (NNE)    
Max Wind Speed 15 mph    
Max Gust Speed 18 mph    
Visibility 8 miles    
Events      
T = Trace of Precipitation, MM = Missing Value Source: NWS Daily Summary

Daily Weather History Graph

Daily Weather History Graph

Search for Another Location

Airport:

Trip Planner

Search our weather history database for the weather conditions in past years. The results will help you decide how hot, cold, wet, or windy it might be!

Date:

Astronomy

Mar. 17, 2013 Rise Set
Actual Time 7:12 AM EDT 7:14 PM EDT
Civil Twilight 6:47 AM EDT 7:40 PM EDT
Nautical Twilight 6:17 AM EDT 8:10 PM EDT
Astronomical Twilight 5:46 AM EDT 8:40 PM EDT
Moon 10:32 AM EDT (3/17) 12:12 AM EDT (3/17)
Length of Visible Light 12h 53m
Length of Day
12h 01m
Waxing Crescent, 31% of the Moon is Illuminated
Mar 17
Waxing Crescent
Mar 19
First Quarter
Mar 27
Full
Apr 3
Last Quarter
Apr 10
New

Hourly Weather History & Observations

Time (EDT) Temp. Windchill Dew Point Humidity Pressure Visibility Wind Dir Wind Speed Gust Speed Precip Events Conditions
12:15 AM 51.8 °F - 50.0 °F 94% 29.82 in 0.8 mi SSW 3.5 mph - N/A   Mostly Cloudy
12:35 AM 53.6 °F - 53.6 °F 100% 29.86 in 4.0 mi North 6.9 mph - N/A   Mostly Cloudy
12:55 AM 53.6 °F - 53.6 °F 100% 29.86 in 4.0 mi NNE 3.5 mph - N/A   Mostly Cloudy
1:15 AM 48.2 °F - 48.2 °F 100% 29.88 in 5.0 mi North 10.4 mph 18.4 mph N/A   Overcast
1:35 AM 46.4 °F 42.9 °F 46.4 °F 100% 29.89 in 5.0 mi North 6.9 mph 16.1 mph N/A   Overcast
1:55 AM 46.4 °F 42.9 °F 46.4 °F 100% 29.90 in 5.0 mi North 6.9 mph - N/A   Overcast
2:15 AM 46.4 °F 42.4 °F 44.6 °F 93% 29.92 in 7.0 mi North 8.1 mph - N/A   Overcast
2:35 AM 46.4 °F 41.9 °F 44.6 °F 93% 29.92 in 5.0 mi NNE 9.2 mph - N/A   Overcast
2:55 AM 46.4 °F 42.9 °F 44.6 °F 93% 29.93 in 5.0 mi North 6.9 mph - N/A   Overcast
3:15 AM 44.6 °F 40.2 °F 44.6 °F 100% 29.93 in 5.0 mi NE 8.1 mph - N/A   Overcast
3:35 AM 44.6 °F 42.2 °F 44.6 °F 100% 29.94 in 5.0 mi NNE 4.6 mph - N/A   Overcast
3:55 AM 44.6 °F - 44.6 °F 100% 29.94 in 5.0 mi Calm Calm - N/A   Overcast
4:15 AM 46.4 °F 43.5 °F 44.6 °F 93% 29.95 in 5.0 mi North 5.8 mph - N/A   Overcast
4:35 AM 44.6 °F 43.1 °F 44.6 °F 100% 29.94 in 5.0 mi NNE 3.5 mph - N/A   Overcast
4:55 AM 44.6 °F - 44.6 °F 100% 29.95 in 5.0 mi Calm Calm - N/A   Overcast
5:15 AM 44.6 °F 43.1 °F 44.6 °F 100% 29.97 in 5.0 mi North 3.5 mph - N/A   Overcast
5:35 AM 44.6 °F 42.2 °F 44.6 °F 100% 29.99 in 5.0 mi North 4.6 mph - N/A   Overcast
5:55 AM 44.6 °F 39.7 °F 42.8 °F 93% 30.00 in 7.0 mi NE 9.2 mph - N/A   Overcast
6:15 AM 44.6 °F 41.4 °F 42.8 °F 93% 29.99 in 7.0 mi NE 5.8 mph - N/A   Mostly Cloudy
6:35 AM 44.6 °F 39.7 °F 42.8 °F 93% 30.00 in 7.0 mi NE 9.2 mph - N/A   Overcast
6:55 AM 44.6 °F 39.2 °F 42.8 °F 93% 30.01 in 7.0 mi NE 10.4 mph - N/A   Overcast
7:15 AM 44.6 °F 39.2 °F 42.8 °F 93% 30.01 in 7.0 mi NE 10.4 mph - N/A   Overcast
7:35 AM 44.6 °F 39.7 °F 41.0 °F 87% 30.03 in 7.0 mi NNE 9.2 mph - N/A   Overcast
7:55 AM 44.6 °F 40.7 °F 42.8 °F 93% 30.03 in 7.0 mi NNE 6.9 mph - N/A   Overcast
8:15 AM 42.8 °F 38.0 °F 41.0 °F 93% 30.04 in 5.0 mi NNE 8.1 mph - N/A   Overcast
8:35 AM 44.6 °F 39.7 °F 42.8 °F 93% 30.06 in 5.0 mi NE 9.2 mph - N/A   Overcast
8:55 AM 44.6 °F 40.2 °F 41.0 °F 87% 30.07 in 7.0 mi NNE 8.1 mph - N/A   Overcast
9:15 AM 44.6 °F 40.2 °F 41.0 °F 87% 30.07 in 10.0 mi North 8.1 mph 16.1 mph N/A   Overcast
9:35 AM 44.6 °F 39.2 °F 41.0 °F 87% 30.08 in 10.0 mi NNE 10.4 mph - N/A   Overcast
9:55 AM 44.6 °F 38.4 °F 39.2 °F 81% 30.08 in 10.0 mi NE 12.7 mph - N/A   Overcast
10:15 AM 44.6 °F 39.2 °F 41.0 °F 87% 30.08 in 10.0 mi NE 10.4 mph - N/A   Overcast
10:35 AM 44.6 °F 38.8 °F 39.2 °F 81% 30.09 in 10.0 mi NNE 11.5 mph - N/A   Overcast
10:55 AM 44.6 °F 39.2 °F 39.2 °F 81% 30.10 in 10.0 mi NNE 10.4 mph - N/A   Overcast
11:15 AM 44.6 °F 38.4 °F 39.2 °F 81% 30.11 in 10.0 mi North 12.7 mph - N/A   Overcast
11:35 AM 44.6 °F 39.7 °F 39.2 °F 81% 30.12 in 10.0 mi NNE 9.2 mph - N/A   Overcast
11:55 AM 44.6 °F 40.2 °F 39.2 °F 81% 30.14 in 10.0 mi North 8.1 mph - N/A   Overcast
12:15 PM 44.6 °F 41.4 °F 39.2 °F 81% 30.16 in 10.0 mi North 5.8 mph - N/A   Overcast
12:35 PM 44.6 °F 41.4 °F 39.2 °F 81% 30.16 in 7.0 mi North 5.8 mph - N/A   Overcast
12:55 PM 44.6 °F 40.2 °F 39.2 °F 81% 30.16 in 7.0 mi North 8.1 mph - N/A   Overcast
1:15 PM 44.6 °F 40.2 °F 39.2 °F 81% 30.15 in 7.0 mi NE 8.1 mph - N/A   Overcast
1:35 PM 44.6 °F 39.7 °F 39.2 °F 81% 30.14 in 10.0 mi NE 9.2 mph - N/A   Overcast
1:55 PM 44.6 °F 39.2 °F 39.2 °F 81% 30.14 in 10.0 mi NE 10.4 mph - N/A   Overcast
2:15 PM 44.6 °F 39.7 °F 39.2 °F 81% 30.14 in 7.0 mi NNE 9.2 mph - N/A   Overcast
2:35 PM 44.6 °F 39.7 °F 37.4 °F 76% 30.14 in 7.0 mi NNE 9.2 mph - N/A   Overcast
2:55 PM 42.8 °F 38.0 °F 37.4 °F 81% 30.14 in 10.0 mi North 8.1 mph - N/A   Overcast
3:15 PM 42.8 °F 37.5 °F 37.4 °F 81% 30.13 in 10.0 mi NE 9.2 mph - N/A   Overcast
3:35 PM 42.8 °F 38.0 °F 37.4 °F 81% 30.13 in 5.0 mi NNE 8.1 mph - N/A   Haze
3:55 PM 42.8 °F 37.0 °F 39.2 °F 87% 30.13 in 5.0 mi NE 10.4 mph - N/A   Overcast
4:15 PM 42.8 °F 36.6 °F 37.4 °F 81% 30.13 in 7.0 mi ENE 11.5 mph - N/A   Overcast
4:35 PM 42.8 °F 36.6 °F 37.4 °F 81% 30.13 in 7.0 mi NE 11.5 mph - N/A   Overcast
4:55 PM 42.8 °F 36.2 °F 37.4 °F 81% 30.14 in 7.0 mi NE 12.7 mph - N/A   Overcast
5:15 PM 42.8 °F 36.6 °F 35.6 °F 76% 30.15 in 10.0 mi NE 11.5 mph - N/A   Overcast
5:35 PM 42.8 °F 35.8 °F 37.4 °F 81% 30.15 in 10.0 mi NE 13.8 mph - N/A   Overcast
5:55 PM 42.8 °F 35.4 °F 35.6 °F 76% 30.15 in 10.0 mi NE 15.0 mph - N/A   Overcast
6:15 PM 42.8 °F 37.0 °F 35.6 °F 76% 30.17 in 10.0 mi NE 10.4 mph - N/A   Overcast
6:35 PM 41.0 °F 33.9 °F 35.6 °F 81% 30.17 in 10.0 mi NE 12.7 mph 18.4 mph N/A   Overcast
6:55 PM 41.0 °F 35.8 °F 35.6 °F 81% 30.20 in 10.0 mi NNE 8.1 mph - N/A   Overcast
7:15 PM 41.0 °F 34.7 °F 35.6 °F 81% 30.20 in 10.0 mi NE 10.4 mph - N/A   Overcast
7:35 PM 41.0 °F 34.3 °F 35.6 °F 81% 30.20 in 10.0 mi NE 11.5 mph - N/A   Overcast
7:55 PM 41.0 °F 35.2 °F 35.6 °F 81% 30.20 in 10.0 mi NE 9.2 mph - N/A   Overcast
8:15 PM 41.0 °F 34.3 °F 35.6 °F 81% 30.22 in 10.0 mi NE 11.5 mph - N/A   Overcast
8:35 PM 41.0 °F 35.2 °F 35.6 °F 81% 30.22 in 10.0 mi ENE 9.2 mph - N/A   Overcast
8:55 PM 41.0 °F 34.7 °F 35.6 °F 81% 30.23 in 10.0 mi NE 10.4 mph - N/A   Overcast
9:15 PM 39.2 °F 31.6 °F 33.8 °F 81% 30.23 in 10.0 mi ENE 12.7 mph - N/A   Overcast
9:35 PM 39.2 °F 33.0 °F 35.6 °F 87% 30.23 in 10.0 mi NE 9.2 mph 15.0 mph N/A   Overcast
9:55 PM 39.2 °F 32.0 °F 35.6 °F 87% 30.21 in 10.0 mi NE 11.5 mph - N/A   Overcast
10:15 PM 39.2 °F 33.6 °F 35.6 °F 87% 30.23 in 10.0 mi ENE 8.1 mph - N/A   Overcast
10:35 PM 39.2 °F 32.5 °F 35.6 °F 87% 30.24 in 10.0 mi NE 10.4 mph - N/A   Overcast
10:55 PM 39.2 °F 32.0 °F 35.6 °F 87% 30.25 in 10.0 mi ENE 11.5 mph - N/A   Overcast
11:15 PM 41.0 °F 34.3 °F 35.6 °F 81% 30.25 in 10.0 mi NE 11.5 mph - N/A   Overcast
11:35 PM 41.0 °F 35.2 °F 35.6 °F 81% 30.26 in 10.0 mi NE 9.2 mph - N/A   Overcast
11:55 PM 41.0 °F 35.8 °F 35.6 °F 81% 30.25 in 10.0 mi NE 8.1 mph - N/A   Overcast